Location: St Paul
(33.4390°N, 83.7350°W)
Time: 18:01:03
(UTC-04:00)

Meteor 2-16 Rocket - Pass Details

Date: 06 October 2017
Orbit: 942 x 956 km, 82.6° (Epoch: 19 October)

Event Time Altitude Azimuth Distance (km) Brightness Sun altitude
Rises 20:48:03 0° 186° (S) 3,590 7.5 -20.8°
Reaches altitude 10° 20:50:31 10° 187° (S) 2,649 6.8 -21.3°
Maximum altitude 20:56:35 85° 276° (W) 952 4.4 -22.5°
Drops below altitude 10° 21:02:42 10° 5° (N) 2,670 6.8 -23.8°
Sets 21:05:12 0° 6° (N) 3,620 7.5 -24.3°
